Location: B?ogocice
(50.2413°N, 20.2361°E)
Time: 11:47:07
(UTC+00:00)

UNK - Pass Details

Date: 15 June 2024
Orbit: 659 x 679 km, 98.3° (Epoch: 15 July)

Event Time Altitude Azimuth Distance (km) Brightness Sun altitude
Rises 01:16:55 0° 157° (SSE) 3,016 6.8 -8.6°
Reaches altitude 10° 01:19:09 10° 155° (SSE) 2,103 6.0 -8.4°
Maximum altitude 01:23:43 71° 72° (ENE) 716 4.1 -8.0°
Drops below altitude 10° 01:28:18 10° 349° (N) 2,106 6.9 -7.5°
Sets 01:30:32 0° 348° (NNW) 3,021 7.7 -7.3°
